Regional Weather Roundup
Issued by NWS Green Bay, WI

Home | Current Version | Previous Version | Text Only | Print | Product List | Glossary On
Versions: 1 2 3 4 5 6 7 8 9 10 11 12 13 14 15 16 17 18 19 20 21 22 23 24 25 26 27 28 29 30 31 32 33 34 35 36 37 38 39 40 41 42 43 44 45 46 47 48 49 50
000
ASUS43 KGRB 200211
RWRGRB

NORTH-CENTRAL AND NORTHEAST WISCONSIN REGIONAL WEATHER ROUNDUP
NATIONAL WEATHER SERVICE GREEN BAY WI
900 PM CDT SAT MAY 19 2018

WIZ005-009-010>012-018-019-200300-
NORTH CENTRAL WISCONSIN

CITY           SKY/WX    TMP DP  RH WIND       PRES   REMARKS
IRONWOOD       FAIR      43  35  73 NE5       30.16R
MANITOWISH WTR CLOUDY    42  37  83 NE10G23   30.12R
ARBOR VITAE    CLOUDY    43  38  82 N10G16    30.11R
EAGLE RIVER    CLOUDY    41  38  91 N14G21    30.10R
LAND O LAKES   CLOUDY    41  38  91 N10G17    30.14R
RHINELANDER    CLOUDY    43  40  89 NE10G17   30.10R
PHILLIPS       CLOUDY    44  38  79 NE13G18   30.11R
ANTIGO         CLOUDY    44  40  86 N12       30.06R
TOMAHAWK       CLOUDY    42  38  83 N7        30.10R
MERRILL        CLOUDY    45  40  83 NE14      30.09R
$$

WIZ013-073-200300-
NORTHEAST WISCONSIN

CITY           SKY/WX    TMP DP  RH WIND       PRES   REMARKS
IRON MOUNTAIN  CLOUDY    44  39  82 N15       30.07R
MARINETTE      NOT AVBL
OCONTO         CLOUDY    55  43  64 N15       30.02R
$$

WIZ017-030-035>037-045-200300-
CENTRAL WISCONSIN

CITY           SKY/WX    TMP DP  RH WIND       PRES   REMARKS
MEDFORD        DRIZZLE   44  38  80 N15G25    30.07R
WAUSAU         CLOUDY    48  40  73 N15G21    30.05R
MOSINEE        CLOUDY    50  43  76 N15G25    30.05R
MARSHFIELD     CLOUDY    50  42  74 NE14G21   30.03R
WISC RAPIDS    CLOUDY    57  45  64 N18       30.00R
STEVENS POINT  NOT AVBL
WAUPACA        CLOUDY    67  54  62 NE12G18   29.98R
SHAWANO        CLOUDY    56  44  64 N15       30.03R
CLINTONVILLE   CLOUDY    59  43  55 N14       30.01R
WAUTOMA        FAIR      66  49  54 N12       29.95R
$$

WIZ038-039-048-051-200300-
FOX VALLEY

CITY           SKY/WX    TMP DP  RH WIND       PRES   REMARKS
NWS GREEN BAY  CLOUDY    58  51  78 NE16      30.01R
APPLETON       CLOUDY    63  52  67 NE10      29.96R
OSHKOSH        CLOUDY    62  56  80 E13G21    29.97R
FOND DU LAC    MOCLDY    62  55  77 E10       29.96R
$$

WIZ022-050-052-200300-
EAST CENTRAL WISCONSIN

CITY           SKY/WX    TMP DP  RH WIND       PRES   REMARKS
EPHRAIM        CLOUDY    46  40  81 N16G24    30.01R
WASHINGTON ISL NOT AVBL
STURGEON BAY   CLOUDY    50  42  74 N14G25    30.03R
MANITOWOC      CLOUDY    49  47  93 N6        30.01R
SHEBOYGAN      CLOUDY    49  48  97 NE6       29.99R
$$

LMZ563-521-522-541>543-200300-
LAKESHORE

STATION/POSITION TIME  TEMP    WIND        PRES    VSBY  WAVE
                       AIR SEA DIR/SP/G                  HT/PER
                 (UTC) (F)     (DEG/KT/KT) (MB)    (MI)  (FT/S)
SHEBOYGAN LKSHOR 0200   46      10/ 15/ 17 1016.4R
KEWAUNEE LKSHORE 0148   46      20/  3/  8 1015.6R
NORTHPORT PIER   0200   45                 1016.9
SISTER BAY LKSHO 0157   46     350/ 19/ 25   N/A
MENOMINEE LKSHOR 0148   51     340/ 17/ 24 1016.6R
$$




USA.gov is the U.S. government's official web portal to all federal, state and local government web resources and services.